STARLINK-6060, 56794

Orbit data source: Space-Track

STARLINK-6060, 56794 is a payload satellite owned by SpaceX/Seattle (US) in LEO that was launched on Wed, 31 May 2023 UTC via an FALCON 9 launch vehicle from the Air Force Western Test Range (AFWTR). Payload-class satellites include a variety of spacecraft equipped with specific instruments for various scientific and technological missions. These include communications satellites like Starlink; space stations such as the ISS; scientific satellites like the Hubble; Earth observation satellites from companies like Planet Labs, Umbra, and HawkEye 360; GPS; miniature CubeSats for education and research; and military/defense satellites.

Loading next visibility...
Identifier
56794, 2023-078AD
Orbit
LEO
Country
Flag of USUS
Related business
Manufacturer
SpaceX/Seattle
Mission
Operational Commercial Communications
Bus & Motor
STARLINK, Unknown motor
Mass
305 kg wet, ~290 kg dry
Launch date (UTC)
2023-05-31 (3 years ago)
Launch vehicle
FALCON 9
Launch site
Air Force Western Test Range (AFWTR)
Object type
Payload
Rocket body
Debris
Shape & HBR
Box + 1 Pan, 10.1 m
Radar Cross Section
11.087 m², Large (>1 m²)

Expand to show TLE details & history
Last TLE update: 2 days ago

TLE from 2 days ago
0 STARLINK-6060
1 56794U 23078AD  26171.43079257  .00002183  00000-0  19072-3 0  9991
2 56794  69.9997  65.3912 0002923 265.4417  94.6408 14.98326112168567
Epoch: 2026-06-20T10:20Z
TLE epoch observation values (Epoch: 2026-06-20T10:20:20.478Z)
Latitude
-0.00002°
Longitude
1.66035°
Altitude
574.657 km
Speed
7.574 km/s
True Right ascension
04h 21m 33s
True Declination
0° 00' 00"
Sunlit
Object was in daylight at epoch
Visualization orbit readout
Latitude
Unknown
Longitude
Unknown
Altitude
Unknown
Speed
Unknown
Apparent Right ascension
Unknown
Apparent Declination
Unknown
Sunlit
N/A
Visualization observer readout
Local Sidereal Time
21:54:18
Azimuth
Unknown
Elevation
Unknown
Doppler factor
Unknown
Orbital elements
Apogee altitude
572.047 km
Perigee altitude
567.985 km
Semi-major axis
6,948.153 km
Eccentricity
0.00029
Inclination
69.9997°
RAAN
65.3912°
Arg. of periapsis
265.4417°
True anomaly
94.67418°
Mean anomaly
94.6408°
Eccentric anomaly
94.65749°
Mean motion
3.74748 °/min
Orbital period
96.06 mins
BSTAR
0.00019072
Loading maneuver chart data...
Computing Atmospheric mass density...
Loading historical data...
Loading historical data...
Loading historical data...
Loading historical data...
Loading historical data...
Loading historical data...
Loading historical data...

Documentation

Showing up to 5 results
|